15 daagse weersverwachting Yverdon-les-Bains (CH)

  • Overzicht
  • Per uur
  • 15 dagen
  • Extra
  • Vergelijk
  • Kaarten
  • Dagkaart
  • Meer »
  • Info
  • Statistieken
  • Directe link
    Temp 6h Neerslag Wind  
 05:40     21:31    Daglengte: 15:51 Vandaag
08:00
17°
0.3 mm
2
14:00
21°
20.0 mm
2
20:00
20°
10.3 mm
1
 05:41     21:31    Daglengte: 15:50 Morgen
02:00
16°
 
1
08:00
17°
 
2
14:00
22°
9.6 mm
3
20:00
19°
 
4
 05:41     21:31    Daglengte: 15:50 Zaterdag 22 Jun
02:00
16°
 
3
08:00
16°
22.8 mm
2
14:00
20°
30.0 mm
2
20:00
19°
40.0 mm
1
Locatie info
Region: Jura-Nord Vaudois
Latitude: 46.7786°N
Longitude: 6.6414°E
438 masl
Postcode: 1400
Temp/Neerslag /Baro Onweer/Dauwpunt
    Temp Baro 1h Neerslag Dauwpunt Wind UV Bewolking  
 05:40     21:31    Daglengte: 15:51 Vandaag
04:00
17°
1014.0 hPa
42%
15.3°
1
Windvlaag: -0.7 km/h
77%
05:00
17°
1014.0 hPa
23%
15.3°
2
Windvlaag: -0.4 km/h
62%
06:00
16°
1014.3 hPa
39%
14.9°
1
Windvlaag: -0.6 km/h
66%
07:00
17°
1014.5 hPa
42%
15.0°
1
Windvlaag: -0.1 km/h
80%
08:00
17°
1014.6 hPa 0.3 mm
81%
15.2°
2
Windvlaag: 0.3 km/h
86%
09:00
18°
1014.8 hPa 0.8 mm
82%
15.5°
1
Windvlaag: 0.7 km/h
84% warningclass
10:00
18°
1015.0 hPa 2.1 mm
82%
14.9°
2
Windvlaag: 1.4 km/h
72%
11:00
19°
1014.9 hPa 3.0 mm
82%
15.2°
2
Windvlaag: 2.2 km/h
61%
12:00
20°
1014.8 hPa 4.6 mm
81%
15.6°
2
Windvlaag: 2 km/h
59% warningclass
13:00
21°
1014.7 hPa 4.7 mm
37%
15.8°
3
Windvlaag: 2.7 km/h
42% warningclass
14:00
21°
1014.6 hPa 4.7 mm
74%
16.2°
2
Windvlaag: 1 km/h
9%
15:00
22°
1014.7 hPa 5.7 mm
79%
16.6°
3
Windvlaag: 1 km/h
10% warningclass
16:00
22°
1014.3 hPa 4.6 mm
82%
15.8°
2
Windvlaag: 1.1 km/h
11% warningclass
17:00
22°
1014.2 hPa
81%
16.3°
2
Windvlaag: 0.9 km/h
39%
18:00
22°
1014.5 hPa
82%
16.3°
2
Windvlaag: 0.7 km/h
73%
19:00
21°
1014.9 hPa
78%
15.8°
2
Windvlaag: 0.3 km/h
61%
20:00
20°
1015.2 hPa
69%
15.5°
1
Windvlaag: -0.7 km/h
56%
21:00
18°
1015.8 hPa
24%
15.3°
1
Windvlaag: -0.9 km/h
77%
22:00
17°
1016.2 hPa
20%
14.6°
1
Windvlaag: -0.2 km/h
47%
23:00
17°
1016.4 hPa
25%
14.8°
1
Windvlaag: -0.3 km/h
72%
 05:41     21:31    Daglengte: 15:50 Morgen
00:00
16°
1016.7 hPa
22%
14.8°
1
Windvlaag: 0.3 km/h
67%
01:00
16°
1016.7 hPa
23%
14.8°
1
Windvlaag: 0.2 km/h
72%
02:00
16°
1016.6 hPa
18%
14.4°
1
Windvlaag: -0.1 km/h
50%
03:00
15°
1016.6 hPa
17%
14.4°
1
Windvlaag: -0.5 km/h
76%
04:00
15°
1016.5 hPa
18%
14.1°
1
Windvlaag: -0.5 km/h
82%
05:00
15°
1016.5 hPa
19%
14.1°
1
Windvlaag: -0.5 km/h
71%
06:00
15°
1016.7 hPa
18%
14.3°
1
Windvlaag: -0.2 km/h
50%
07:00
16°
1017.2 hPa
29%
14.8°
1
Windvlaag: -0.2 km/h
40%
08:00
17°
1017.4 hPa
32%
15.3°
2
Windvlaag: 0 km/h
32%
09:00
17°
1017.6 hPa 4.9 mm
76%
15.9°
2
Windvlaag: 0 km/h
46%
10:00
18°
1017.6 hPa 4.8 mm
77%
16.0°
3
Windvlaag: -0 km/h
41%
11:00
19°
1017.4 hPa
37%
16.1°
3
Windvlaag: 0.1 km/h
48%
12:00
20°
1017.1 hPa
75%
16.5°
3
Windvlaag: 0.2 km/h
49%
13:00
21°
1016.7 hPa
43%
16.4°
4
Windvlaag: 0.4 km/h
51%
14:00
22°
1016.3 hPa
46%
16.3°
3
Windvlaag: 0.5 km/h
66%
15:00
22°
1015.9 hPa
74%
17.2°
3
Windvlaag: 0.6 km/h
62%
16:00
22°
1015.7 hPa
82%
17.3°
3
Windvlaag: 0.7 km/h
83%
17:00
21°
1015.6 hPa
82%
16.7°
4
Windvlaag: 0.6 km/h
75%
18:00
20°
1015.7 hPa
82%
16.6°
3
Windvlaag: 0.2 km/h
84%
19:00
20°
1015.8 hPa
78%
16.8°
3
Windvlaag: -0.5 km/h
88%
20:00
19°
1016.0 hPa
75%
16.5°
4
Windvlaag: -1.2 km/h
85%
21:00
18°
1016.0 hPa
75%
15.6°
4
Windvlaag: -1.5 km/h
70%
22:00
17°
1016.3 hPa
77%
15.2°
4
Windvlaag: -2 km/h
83%
23:00
17°
1016.7 hPa
99%
15.6°
3
Windvlaag: -2.1 km/h
80% warningclass
 05:41     21:31    Daglengte: 15:50 Zaterdag 22 Jun
00:00
17°
1016.6 hPa
100%
15.4°
3
Windvlaag: -2.2 km/h
87%
01:00
16°
1016.6 hPa
99%
15.1°
3
Windvlaag: -1.9 km/h
96%
02:00
16°
1016.6 hPa
94%
15.1°
3
Windvlaag: -1.9 km/h
96%
03:00
16°
1016.2 hPa
94%
15.1°
3
Windvlaag: -1.6 km/h
99%
04:00
16°
1015.9 hPa
100%
15.1°
3
Windvlaag: -1.8 km/h
98%
05:00
16°
1015.8 hPa 6.6 mm
97%
15.1°
3
Windvlaag: -1.5 km/h
90% warningclass
06:00
16°
1016.1 hPa 4.9 mm
100%
15.1°
2
Windvlaag: -1.1 km/h
93% warningclass
07:00
16°
1016.4 hPa 5.6 mm
100%
15.5°
2
Windvlaag: -0.3 km/h
93% warningclass
08:00
16°
1016.7 hPa 5.7 mm
100%
15.7°
2
Windvlaag: -0.8 km/h
96%
09:00
17°
1016.7 hPa 10.2 mm
100%
15.9°
3
Windvlaag: 2.7 km/h
90%
10:00
17°
1016.7 hPa 10.0 mm
100%
16.0°
2
Windvlaag: 3.4 km/h
89%
11:00
18°
1016.6 hPa 9.8 mm
100%
16.1°
2
Windvlaag: 3.8 km/h
82%
12:00
19°
1016.6 hPa
100%
16.2°
2
Windvlaag: 3.6 km/h
89%
13:00
19°
1016.6 hPa
57%
16.3°
2
Windvlaag: 3 km/h
70%
14:00
20°
1016.6 hPa
59%
16.5°
2
Windvlaag: 0.4 km/h
71%
15:00
20°
1016.3 hPa
99%
16.8°
2
Windvlaag: 2.8 km/h
61%
16:00
20°
1016.4 hPa 9.8 mm
99%
17.1°
2
Windvlaag: 3.8 km/h
62%
17:00
20°
1016.3 hPa 10.0 mm
100%
17.0°
2
Windvlaag: 4.3 km/h
72%
18:00
19°
1016.4 hPa 10.0 mm
100%
16.7°
2
Windvlaag: 2.5 km/h
67%
19:00
19°
1016.7 hPa 10.2 mm
100%
16.5°
2
Windvlaag: 2.4 km/h
74%
20:00
19°
1016.8 hPa
89%
16.6°
1
Windvlaag: 0.3 km/h
69%
21:00
18°
1016.8 hPa
21%
16.4°
1
Windvlaag: 3 km/h
46%
22:00
17°
1017.0 hPa
21%
15.7°
2
Windvlaag: 5.4 km/h
43%
23:00
17°
1017.1 hPa
21%
15.4°
1
Windvlaag: 6.1 km/h
39%
 05:41     21:31    Daglengte: 15:50 Zondag 23 Jun
00:00
16°
1017.3 hPa
21%
15.2°
1
Windvlaag: 3.3 km/h
37%
01:00
16°
1017.3 hPa
22%
14.9°
1
Windvlaag: 2.7 km/h
33%
02:00
15°
1017.3 hPa
22%
14.8°
1
Windvlaag: 0.4 km/h
30%
03:00
16°
1018.3 hPa   15.0°
2
Windvlaag: 0 km/h
71%
Temp/Neerslag /Baro Onweer/Dauwpunt
    Temp Baro Neerslag Dauwpunt Wind Bewolking  
 05:40     21:31    Daglengte: 15:51 Vandaag
05:00
17°
1014.0 hPa   15.3°
2
62%
08:00
17°
1014.6 hPa 0.3 mm 15.2°
2
86%
11:00
19°
1014.9 hPa 6.0 mm 15.2°
2
61%
14:00
21°
1014.6 hPa 14.0 mm 16.2°
2
9%
17:00
22°
1014.2 hPa 10.3 mm 16.3°
2
39%
20:00
20°
1015.2 hPa   15.5°
1
56%
23:00
17°
1016.4 hPa   14.8°
1
72%
 05:41     21:31    Daglengte: 15:50 Morgen
02:00
16°
1016.6 hPa   14.4°
1
50%
05:00
15°
1016.5 hPa   14.1°
1
71%
08:00
17°
1017.4 hPa   15.3°
2
32%
11:00
19°
1017.4 hPa 9.6 mm 16.1°
3
48%
14:00
22°
1016.3 hPa   16.3°
3
66%
17:00
21°
1015.6 hPa   16.7°
4
75%
20:00
19°
1016.0 hPa   16.5°
4
85%
23:00
17°
1016.7 hPa   15.6°
3
80% warningclass
 05:41     21:31    Daglengte: 15:50 Zaterdag 22 Jun
02:00
16°
1016.6 hPa   15.1°
3
96%
05:00
16°
1015.8 hPa 6.6 mm 15.1°
3
90% warningclass
08:00
16°
1016.7 hPa 16.2 mm 15.7°
2
96%
11:00
18°
1016.6 hPa 30.0 mm 16.1°
2
82%
14:00
20°
1016.6 hPa   16.5°
2
71%
17:00
20°
1016.3 hPa 19.8 mm 17.0°
2
72%
20:00
19°
1016.8 hPa 20.2 mm 16.6°
1
69%
23:00
17°
1017.1 hPa   15.4°
1
39%
 05:41     21:31    Daglengte: 15:50 Zondag 23 Jun
02:00
15°
1017.3 hPa   14.8°
1
30%
05:00
16°
1018.3 hPa 39.2 mm 15.3°
3
77%
08:00
17°
1018.3 hPa 39.2 mm 15.6°
3
90%
11:00
20°
1017.9 hPa 39.3 mm 16.2°
4
78%
14:00
23°
1017.5 hPa 39.3 mm 16.3°
4
67%
17:00
23°
1017.5 hPa 39.3 mm 16.6°
3
65%
20:00
22°
1017.6 hPa 39.3 mm 17.2°
2
62%
23:00
19°
1018.3 hPa 39.3 mm 16.1°
2
62%
 05:41     21:31    Daglengte: 15:50 Maandag 24 Jun
02:00
17°
1018.9 hPa 39.3 mm 15.3°
2
62%
05:00
17°
1019.3 hPa 39.3 mm 15.7°
2
67%
08:00
18°
1019.8 hPa 39.3 mm 16.3°
2
73%
11:00
22°
1019.4 hPa 39.3 mm 17.9°
2
67%
14:00
26°
1019.0 hPa 39.3 mm 18.8°
1
60%
17:00
26°
1018.8 hPa 39.3 mm 19.0°
1
53%
20:00
25°
1018.8 hPa 39.3 mm 19.2°
2
47%
23:00
22°
1019.7 hPa 39.3 mm 17.5°
2
43%
 05:42     21:31    Daglengte: 15:49 Dinsdag 25 Jun
02:00
18°
1020.6 hPa 39.3 mm 15.9°
2
39%
05:00
19°
1021.1 hPa 39.3 mm 16.9°
2
30%
08:00
20°
1021.6 hPa 39.3 mm 18.2°
1
20%
11:00
25°
1020.9 hPa 39.3 mm 19.1°
1
10%
14:00
29°
1020.2 hPa 39.3 mm 18.6°
2
0%
17:00
29°
1019.9 hPa 39.3 mm 19.5°
2
0%
20:00
28°
1019.6 hPa 39.3 mm 20.3°
1
0%
23:00
24°
1020.4 hPa 39.3 mm 18.1°
2
0%
 05:42     21:31    Daglengte: 15:49 Woensdag 26 Jun
02:00
20°
1021.0 hPa 39.3 mm 16.2°
2
0%
05:00
21°
1021.3 hPa 39.3 mm 17.3°
1
0%
08:00
22°
1021.6 hPa 39.3 mm 18.7°
1
0%
11:00
26°
1021.0 hPa 39.3 mm 20.5°
1
23%
14:00
31°
1020.4 hPa 39.3 mm 21.5°
1
47%
17:00
30°
1019.7 hPa 39.3 mm 21.6°
1
35%
20:00
29°
1019.1 hPa 39.3 mm 21.9°
1
23%
23:00
26°
1019.5 hPa 39.3 mm 19.4°
1
11%
 05:43     21:31    Daglengte: 15:48 Donderdag 27 Jun
02:00
22°
1019.9 hPa 78.6 mm 17.1°
1
0%
08:00
24°
1020.3 hPa 78.6 mm 20.2°
1
0%
14:00
31°
1019.2 hPa 78.6 mm 20.7°
2
0%
20:00
29°
1017.8 hPa 78.6 mm 23.0°
1
3%
 05:43     21:31    Daglengte: 15:48 Vrijdag 28 Jun
02:00
22°
1018.6 hPa 78.7 mm 18.2°
1
0%
08:00
24°
1018.0 hPa 78.7 mm 20.0°
1
0%
14:00
32°
1016.2 hPa 78.8 mm 20.0°
1
0%
20:00
30°
1014.5 hPa 80.0 mm 23.0°
1
3%
 05:44     21:31    Daglengte: 15:47 Zaterdag 29 Jun
02:00
23°
1015.1 hPa 84.2 mm 16.8°
1
87%
08:00
23°
1016.8 hPa 85.4 mm 21.7°
0
0%
14:00
31°
1015.1 hPa 85.6 mm 25.3°
1
0%
20:00
28°
1014.8 hPa 89.9 mm 23.9°
2
0%
 05:44     21:31    Daglengte: 15:47 Zondag 30 Jun
02:00
20°
1014.7 hPa 1.1 mm 17.3°
1
30%
08:00
21°
1015.2 hPa 1.1 mm 18.6°
1
29%
14:00
27°
1014.0 hPa 0.5 mm 18.4°
2
28%
20:00
25°
1014.1 hPa 1.7 mm 20.5°
2
34%
 05:45     21:31    Daglengte: 15:46 Maandag 01 Jul
02:00
17°
1015.7 hPa 1.5 mm 15.4°
1
33%
08:00
19°
1015.6 hPa 0.8 mm 16.0°
2
33%
14:00
24°
1014.4 hPa 0.9 mm 16.2°
2
36%
20:00
21°
1014.6 hPa 3.0 mm 17.6°
2
38%
 05:45     21:31    Daglengte: 15:46 Dinsdag 02 Jul
02:00
15°
1015.8 hPa 1.3 mm 13.4°
1
37%
08:00
16°
1015.6 hPa 0.7 mm 14.3°
1
47%
14:00
20°
1014.4 hPa 1.0 mm 14.6°
3
51%
20:00
19°
1014.6 hPa 1.3 mm 15.1°
2
51%
 05:46     21:30    Daglengte: 15:44 Woensdag 03 Jul
02:00
12°
1015.8 hPa 0.5 mm 11.3°
1
36%
08:00
15°
1015.5 hPa 0.5 mm 12.7°
1
40%
14:00
20°
1014.2 hPa 1.4 mm 13.7°
2
44%
20:00
18°
1014.2 hPa 2.9 mm 14.7°
2
52%
 05:47     21:30    Daglengte: 15:43 Donderdag 04 Jul
02:00
12°
1015.2 hPa 1.6 mm 10.8°
1
42%
08:00
14°
1015.4 hPa 1.4 mm 12.1°
1
46%
14:00
20°
1014.5 hPa 1.1 mm 13.1°
2
44%
20:00
18°
1015.0 hPa 1.9 mm 14.4°
2
47%
 05:47     21:30    Daglengte: 15:43 Vrijdag 05 Jul
02:00
12°
1016.8 hPa 1.8 mm 10.7°
1
37%
  CAPE Lifted Index Hail Supercell Tornado SRH 3km CL BTM PRES CL TOP PRES Swiss DWD icon SMHI TS
 05:40     21:31    Daglengte: 15:51 Vandaag
04:00 371 J/kg -3.3 K 0 % 0 % 0 % 0 m²/s² 0 0 -2.49 3
05:00 356 J/kg -3.0 K 0 % 0 % 0 % 0 m²/s² 0 0 -2.43 3
06:00 30 J/kg -3.1 K 0 % 0 % 0 % 0 m²/s² 0 0 -1.99 3
07:00 16 J/kg -2.8 K 0 % 0 % 0 % 0 m²/s² 0 0 -2.2 3
08:00 12 J/kg -2.6 K 0 % 0 % 0 % 0 m²/s² 0 0 -2.03 80
09:00 27 J/kg -1.5 K 0 % 0 % 0 % 0 m²/s² 0 0 -1.5 95
10:00 119 J/kg -0.6 K 0 % 0 % 0 % 0 m²/s² 0 0 -0.6 61
11:00 415 J/kg -1.5 K 0 % 0 % 0 % 0 m²/s² 0 0 -1.32 61
12:00 554 J/kg -2.5 K 0 % 0 % 0 % 0 m²/s² 0 0 -2.5 3
13:00 600 J/kg -2.8 K 0 % 0 % 0 % 0 m²/s² 0 0 -2.08 3
14:00 659 J/kg -3.2 K 0 % 0 % 0 % 0 m²/s² 0 0 -1.88 80
15:00 820 J/kg -3.9 K 0 % 0 % 0 % 0 m²/s² 0 0 -2.76 95
16:00 782 J/kg -3.8 K 0 % 0 % 0 % 0 m²/s² 0 0 -2.48 80
17:00 818 J/kg -3.8 K 0 % 0 % 0 % 0 m²/s² 0 0 -1.97 1
18:00 664 J/kg -3.0 K 0 % 0 % 0 % 0 m²/s² 0 0 -1.65 3
19:00 484 J/kg -2.5 K 0 % 0 % 0 % 0 m²/s² 0 0 -0.55 3
20:00 420 J/kg -2.1 K 0 % 0 % 0 % 0 m²/s² 0 0 -0.45 2
21:00 240 J/kg -1.5 K 0 % 0 % 0 % 0 m²/s² 0 0 0.27 3
22:00 133 J/kg -0.7 K 0 % 0 % 0 % 0 m²/s² 0 0 0.71 3
23:00 109 J/kg -0.5 K 0 % 0 % 0 % 0 m²/s² 0 0 1.21 3
 05:41     21:31    Daglengte: 15:50 Morgen
00:00 123 J/kg -0.3 K 0 % 0 % 0 % 0 m²/s² 0 0 1.35 2
01:00 128 J/kg -0.8 K 0 % 0 % 0 % 0 m²/s² 0 0 0.97 3
02:00 135 J/kg -1.5 K 0 % 0 % 0 % 0 m²/s² 0 0 0.27 2
03:00 150 J/kg -2.6 K 0 % 0 % 0 % 0 m²/s² 0 0 -0.53 3
04:00 161 J/kg -2.5 K 0 % 0 % 0 % 0 m²/s² 0 0 -0.43 3
05:00 179 J/kg -2.3 K 0 % 0 % 0 % 0 m²/s² 0 0 -0.35 3
06:00 116 J/kg -1.5 K 0 % 0 % 0 % 0 m²/s² 0 0 0.33 2
07:00 91 J/kg -1.2 K 0 % 0 % 0 % 0 m²/s² 0 0 0.51 2
08:00 409 J/kg -1.3 K 0 % 0 % 0 % 0 m²/s² 0 0 0.35 2
09:00 730 J/kg -2.2 K 0 % 0 % 0 % 0 m²/s² 0 0 -0.79 2
10:00 826 J/kg -2.4 K 0 % 0 % 0 % 0 m²/s² 0 0 -0.93 2
11:00 980 J/kg -3.0 K 0 % 0 % 0 % 0 m²/s² 0 0 -1.86 2
12:00 973 J/kg -3.3 K 0 % 0 % 0 % 0 m²/s² 0 0 -2.31 2
13:00 921 J/kg -3.3 K 0 % 0 % 0 % 0 m²/s² 0 0 -2.25 3
14:00 820 J/kg -2.7 K 0 % 0 % 0 % 0 m²/s² 0 0 -1.74 3
15:00 1047 J/kg -3.7 K 0 % 0 % 0 % 0 m²/s² 0 0 -2.38 3
16:00 1360 J/kg -4.4 K 0 % 0 % 0 % 0 m²/s² 0 0 -2.9 3
17:00 1115 J/kg -3.1 K 0 % 0 % 0 % 0 m²/s² 0 0 -2.08 3
18:00 981 J/kg -4.1 K 0 % 0 % 0 % 0 m²/s² 0 0 -3.74 3
19:00 992 J/kg -3.9 K 0 % 0 % 0 % 0 m²/s² 0 0 -3.78 3
20:00 336 J/kg -3.0 K 0 % 0 % 0 % 0 m²/s² 0 0 -2.64 3
21:00 328 J/kg -2.7 K 0 % 0 % 0 % 0 m²/s² 0 0 -1.89 3
22:00 202 J/kg -3.0 K 0 % 0 % 0 % 0 m²/s² 0 0 -2.37 3
23:00 127 J/kg -2.6 K 0 % 0 % 0 % 0 m²/s² 0 0 -1.34 95
 05:41     21:31    Daglengte: 15:50 Zaterdag 22 Jun
00:00 143 J/kg -2.1 K 0 % 0 % 0 % 0 m²/s² 0 0 -0.99 80
01:00 36 J/kg -0.6 K 0 % 0 % 0 % 0 m²/s² 0 0 -0.33 3
02:00 57 J/kg -0.3 K 0 % 0 % 0 % 0 m²/s² 0 0 -0.21 3
03:00 0 J/kg -0.3 K 0 % 0 % 0 % 0 m²/s² 0 0 0.45 3
04:00 0 J/kg -0.2 K 0 % 0 % 0 % 0 m²/s² 0 0 0.91 3
05:00 0 J/kg -0.3 K 0 % 0 % 0 % 0 m²/s² 0 0 0.6 95
06:00 0 J/kg -0.5 K 0 % 0 % 0 % 0 m²/s² 0 0 -0.11 95
07:00 62 J/kg -1.3 K 0 % 0 % 0 % 0 m²/s² 0 0 -1 95
08:00 213 J/kg -1.3 K 0 % 0 % 0 % 0 m²/s² 0 0 -1.21 61
09:00 274 J/kg -1.7 K 0 % 0 % 0 % 0 m²/s² 0 0 -1.13 61
10:00 374 J/kg -2.1 K 0 % 0 % 0 % 0 m²/s² 0 0 -1.35 61
11:00 561 J/kg -2.8 K 0 % 0 % 0 % 0 m²/s² 0 0 -1.99 3
12:00 683 J/kg -3.0 K 0 % 0 % 0 % 0 m²/s² 0 0 -1.41 3
13:00 711 J/kg -2.8 K 0 % 0 % 0 % 0 m²/s² 0 0 0.02 3
14:00 665 J/kg -2.4 K 0 % 0 % 0 % 0 m²/s² 0 0 0.51 3
15:00 711 J/kg -2.4 K 0 % 0 % 0 % 0 m²/s² 0 0 0.93 3
16:00 957 J/kg -2.6 K 0 % 0 % 0 % 0 m²/s² 0 0 0.4 3
17:00 855 J/kg -2.1 K 0 % 0 % 0 % 0 m²/s² 0 0 1.44 80
18:00 495 J/kg -1.3 K 0 % 0 % 0 % 0 m²/s² 0 0 2.06 80
19:00 848 J/kg -2.9 K 0 % 0 % 0 % 0 m²/s² 0 0 -0.05 80
20:00 845 J/kg -2.5 K 0 % 0 % 0 % 0 m²/s² 0 0 0.62 3
21:00 757 J/kg -2.1 K 0 % 0 % 0 % 0 m²/s² 0 0 1.47 1
22:00 67 J/kg -0.6 K 0 % 0 % 0 % 0 m²/s² 0 0 3.36 1
23:00 0 J/kg -0.2 K 0 % 0 % 0 % 0 m²/s² 0 0 4.09 1
 05:41     21:31    Daglengte: 15:50 Zondag 23 Jun
00:00 0 J/kg 0.2 K 0 % 0 % 0 % 0 m²/s² 0 0 4.61 1
01:00 0 J/kg 0.5 K 0 % 0 % 0 % 0 m²/s² 0 0 5.27 2
02:00 0 J/kg 0.2 K 0 % 0 % 0 % 0 m²/s² 0 0 4.52 2
03:00 0 J/kg 0.0 K 0 % 0 % 0 % 0 m²/s² 0 0 13.83
Temp Baro Wind Neerslag
  EWN Forecast EWN WRFDA DWD ICON FMI HIRLAM MET Norway GFS
 05:40     21:31    Daglengte: 15:51 Vandaag
05:00 16.6° 1014.0 hPa 1.5 m/s 0.0 mm 17.4° 1012.5 hPa 4.3 m/s 0.1 mm 16.6° 1013.8 hPa 0.7 m/s -2.0 mm 17.3° 1015.2 hPa 1.5 m/s 0.0 mm 14.8° 1013.9 hPa 1.2 m/s 0.0 mm 14.7° 1015.1 hPa 1.1 m/s
08:00 17.0° 1014.6 hPa 1.5 m/s 0.3 mm 17.0° 1013.2 hPa 2.3 m/s 1.0 mm 16.5° 1015.3 hPa 2.6 m/s 0.3 mm 17.9° 1015.3 hPa 1.5 m/s 0.0 mm 17.0° 1014.4 hPa 1.4 m/s 0.0 mm 16.0° 1015.5 hPa 0.5 m/s
11:00 19.4° 1014.9 hPa 2.3 m/s 6.0 mm 16.5° 1014.2 hPa 1.5 m/s 31.9 mm 16.6° 1016.8 hPa 4.1 m/s 3.0 mm 21.5° 1014.8 hPa 1.1 m/s 0.0 mm 20.6° 1014.3 hPa 2.4 m/s 0.7 mm 18.4° 1015.6 hPa 1.1 m/s
14:00 21.2° 1014.6 hPa 2.3 m/s 14.0 mm 21.4° 1014.1 hPa 2.8 m/s 61.3 mm 20.3° 1015.7 hPa 3.6 m/s 0.5 mm 22.7° 1014.4 hPa 1.8 m/s 0.0 mm 20.9° 1014.6 hPa 1.9 m/s 1.6 mm 21.0° 1014.9 hPa 2.2 m/s
17:00 22.0° 1014.2 hPa 1.8 m/s 10.3 mm 21.5° 1013.2 hPa 1.7 m/s 64.1 mm 21.4° 1014.6 hPa 2.6 m/s 2.9 mm 23.1° 1013.9 hPa 1.7 m/s 0.0 mm 21.7° 1014.4 hPa 1.3 m/s 2.0 mm 21.0° 1014.0 hPa 2.1 m/s
20:00 20.0° 1015.2 hPa 1.3 m/s 0.0 mm 21.0° 1014.4 hPa 2.0 m/s 67.1 mm 20.0° 1015.8 hPa 0.7 m/s 0.1 mm 21.8° 1014.6 hPa 1.1 m/s 0.0 mm 19.1° 1015.3 hPa 1.0 m/s 2.4 mm 19.2° 1015.8 hPa 1.4 m/s
23:00 16.8° 1016.4 hPa 1.4 m/s 0.0 mm 14.9° 1015.1 hPa 3.3 m/s 67.3 mm 17.0° 1016.4 hPa 0.9 m/s 0.0 mm 19.6° 1016.0 hPa 1.6 m/s 0.0 mm 15.7° 1016.6 hPa 1.4 m/s 0.0 mm 15.5° 1017.3 hPa 1.2 m/s
 05:41     21:31    Daglengte: 15:50 Morgen
02:00 15.6° 1016.6 hPa 1.1 m/s 0.0 mm 13.7° 1015.7 hPa 2.6 m/s 67.3 mm 15.6° 1017.1 hPa 0.3 m/s 0.0 mm 17.4° 1016.5 hPa 2.6 m/s 0.0 mm 14.7° 1016.4 hPa 0.8 m/s 0.0 mm 13.9° 1017.4 hPa 0.7 m/s
05:00 14.7° 1016.5 hPa 1.1 m/s 0.0 mm 13.4° 1015.1 hPa 2.0 m/s 67.3 mm 14.7° 1017.3 hPa 0.2 m/s 0.0 mm 16.3° 1016.2 hPa 2.0 m/s 0.0 mm 13.2° 1016.5 hPa 1.0 m/s 0.0 mm 13.4° 1017.5 hPa 0.8 m/s
08:00 16.5° 1017.4 hPa 1.5 m/s 0.0 mm 17.5° 1015.4 hPa 3.3 m/s 67.3 mm 16.2° 1017.7 hPa 0.5 m/s 0.0 mm 18.1° 1015.2 hPa 3.6 m/s 0.0 mm 15.8° 1018.0 hPa 0.7 m/s 0.9 mm 16.2° 1018.0 hPa 1.4 m/s
11:00 19.0° 1017.4 hPa 3.2 m/s 9.6 mm 20.9° 1015.6 hPa 4.6 m/s 67.3 mm 19.4° 1017.7 hPa 3.1 m/s 0.0 mm 21.1° 1013.6 hPa 5.4 m/s 0.0 mm 17.5° 1018.7 hPa 2.8 m/s 1.1 mm 19.9° 1017.8 hPa 2.8 m/s
14:00 22.0° 1016.3 hPa 3.4 m/s 0.0 mm 23.6° 1013.9 hPa 4.2 m/s 67.3 mm 21.8° 1016.8 hPa 3.6 m/s 0.0 mm 24.7° 1011.8 hPa 4.4 m/s 0.0 mm 20.3° 1017.4 hPa 2.4 m/s 0.0 mm 22.4° 1016.8 hPa 2.7 m/s
17:00 21.2° 1015.6 hPa 3.6 m/s 0.0 mm 21.8° 1013.2 hPa 6.3 m/s 67.9 mm 20.6° 1016.2 hPa 4.0 m/s 0.2 mm 22.4° 1011.0 hPa 3.2 m/s 0.0 mm 20.5° 1017.0 hPa 2.5 m/s 0.0 mm 20.9° 1016.3 hPa 2.4 m/s
20:00 18.7° 1016.0 hPa 4.1 m/s 0.0 mm 18.3° 1013.5 hPa 4.5 m/s 70.8 mm 18.8° 1017.0 hPa 2.6 m/s 0.2 mm 18.5° 1012.0 hPa 9.7 m/s 0.0 mm 18.7° 1017.5 hPa 2.7 m/s 0.0 mm 18.2° 1016.4 hPa 4.3 m/s
23:00 17.0° 1016.7 hPa 2.7 m/s 0.0 mm 17.1° 1012.9 hPa 4.5 m/s 72.4 mm 17.4° 1017.1 hPa 1.7 m/s 1.1 mm 16.5° 1017.6 hPa 2.4 m/s 0.0 mm 16.1° 1017.3 hPa 2.3 m/s
 05:41     21:31    Daglengte: 15:50 Zaterdag 22 Jun
02:00 16.4° 1016.6 hPa 2.6 m/s 0.0 mm 16.1° 1015.1 hPa 1.4 m/s 74.3 mm 16.7° 1016.8 hPa 2.8 m/s 1.6 mm 16.3° 1017.4 hPa 2.6 m/s 0.0 mm 15.8° 1016.9 hPa 2.0 m/s
05:00 16.0° 1015.8 hPa 2.6 m/s 6.6 mm 13.8° 1011.1 hPa 1.8 m/s 86.9 mm 16.3° 1016.3 hPa 2.4 m/s 2.0 mm 16.2° 1016.7 hPa 2.8 m/s 0.0 mm 14.9° 1016.2 hPa 2.3 m/s
08:00 16.3° 1016.7 hPa 2.2 m/s 16.2 mm 17.4° 1013.0 hPa 2.8 m/s 86.9 mm 16.3° 1017.2 hPa 2.8 m/s 5.8 mm 16.3° 1017.2 hPa 2.2 m/s 2.6 mm 16.0° 1016.9 hPa 2.2 m/s
11:00 18.0° 1016.6 hPa 2.0 m/s 30.0 mm 20.8° 1013.2 hPa 0.8 m/s 87.2 mm 17.3° 1016.8 hPa 2.5 m/s 1.3 mm 17.7° 1017.1 hPa 2.1 m/s 18.6° 1016.8 hPa 1.2 m/s
14:00 19.6° 1016.6 hPa 2.1 m/s 0.0 mm 23.2° 1013.2 hPa 1.4 m/s 87.2 mm 19.4° 1016.9 hPa 3.0 m/s 0.0 mm 19.1° 1017.0 hPa 2.0 m/s 20.6° 1016.7 hPa 0.9 m/s
17:00 19.7° 1016.3 hPa 2.0 m/s 19.8 mm 23.1° 1012.8 hPa 4.2 m/s 87.4 mm 20.2° 1016.1 hPa 1.6 m/s 0.6 mm 18.6° 1017.1 hPa 1.8 m/s 20.5° 1016.0 hPa 1.5 m/s
20:00 18.9° 1016.8 hPa 1.4 m/s 20.2 mm 21.8° 1013.2 hPa 1.8 m/s 87.5 mm 19.0° 1017.1 hPa 0.3 m/s 1.2 mm 18.2° 1017.3 hPa 1.5 m/s 20.0° 1016.8 hPa 1.0 m/s
23:00 16.5° 1017.1 hPa 1.4 m/s 0.0 mm 15.5° 1014.1 hPa 2.5 m/s 87.6 mm 17.1° 1017.1 hPa 0.5 m/s 0.0 mm 16.6° 1017.8 hPa 1.4 m/s 15.7° 1018.0 hPa 2.1 m/s
 05:41     21:31    Daglengte: 15:50 Zondag 23 Jun
02:00 15.1° 1017.3 hPa 1.3 m/s 0.0 mm 15.1° 1013.9 hPa 2.1 m/s 87.6 mm 15.9° 1017.1 hPa 0.8 m/s 0.0 mm 14.9° 1018.2 hPa 1.3 m/s 15.6° 1018.0 hPa 2.3 m/s
05:00 16.2° 1018.3 hPa 2.7 m/s 39.2 mm 16.2° 1018.3 hPa 2.8 m/s 15.4° 1017.6 hPa 2.3 m/s 39.2 mm
08:00 16.8° 1018.3 hPa 3.4 m/s 39.2 mm 16.9° 1018.4 hPa 3.5 m/s 16.3° 1017.7 hPa 1.9 m/s 39.2 mm
11:00 19.9° 1017.9 hPa 3.7 m/s 39.3 mm 19.9° 1018.0 hPa 3.8 m/s 19.1° 1017.3 hPa 2.3 m/s 39.3 mm
14:00 23.0° 1017.5 hPa 3.9 m/s 39.3 mm 23.0° 1017.6 hPa 4.1 m/s 23.4° 1016.6 hPa 1.9 m/s 39.3 mm
17:00 22.7° 1017.5 hPa 3.1 m/s 39.3 mm 22.6° 1017.6 hPa 3.3 m/s 24.7° 1016.5 hPa 0.8 m/s 39.3 mm
20:00 22.2° 1017.6 hPa 2.3 m/s 39.3 mm 22.1° 1017.6 hPa 2.5 m/s 22.9° 1017.5 hPa 0.6 m/s 39.3 mm
23:00 19.2° 1018.3 hPa 2.3 m/s 39.3 mm 19.4° 1018.2 hPa 2.4 m/s 17.6° 1019.2 hPa 1.0 m/s 39.3 mm
 05:41     21:31    Daglengte: 15:50 Maandag 24 Jun
02:00 16.6° 1018.9 hPa 2.2 m/s 39.3 mm 16.6° 1018.8 hPa 2.3 m/s 16.5° 1019.5 hPa 1.0 m/s 39.3 mm
05:00 17.1° 1019.3 hPa 2.0 m/s 39.3 mm 17.1° 1019.3 hPa 2.1 m/s 16.0° 1019.3 hPa 0.5 m/s 39.3 mm
08:00 17.8° 1019.8 hPa 2.0 m/s 39.3 mm 17.7° 1019.8 hPa 2.0 m/s 19.1° 1019.8 hPa 1.6 m/s 39.3 mm
11:00 22.0° 1019.4 hPa 1.6 m/s 39.3 mm 21.8° 1019.4 hPa 1.6 m/s 24.3° 1019.1 hPa 1.3 m/s 39.3 mm
14:00 26.1° 1019.0 hPa 1.2 m/s 39.3 mm 25.9° 1019.0 hPa 1.2 m/s 28.0° 1018.8 hPa 1.3 m/s 39.3 mm
17:00 25.7° 1018.8 hPa 1.4 m/s 39.3 mm 25.4° 1018.9 hPa 1.4 m/s 28.6° 1018.2 hPa 1.3 m/s 39.3 mm
20:00 25.0° 1018.8 hPa 1.6 m/s 39.3 mm 25.0° 1018.8 hPa 1.6 m/s 25.4° 1018.5 hPa 1.3 m/s 39.3 mm
23:00 21.5° 1019.7 hPa 1.8 m/s 39.3 mm 21.6° 1019.7 hPa 1.8 m/s 21.0° 1020.2 hPa 1.9 m/s 39.3 mm
 05:42     21:31    Daglengte: 15:49 Dinsdag 25 Jun
02:00 18.3° 1020.6 hPa 2.0 m/s 39.3 mm 18.2° 1020.6 hPa 2.0 m/s 19.3° 1020.3 hPa 1.8 m/s 39.3 mm
05:00 19.1° 1021.1 hPa 1.7 m/s 39.3 mm 19.2° 1021.2 hPa 1.7 m/s 18.4° 1019.7 hPa 1.2 m/s 39.3 mm
08:00 20.3° 1021.6 hPa 1.4 m/s 39.3 mm 20.2° 1021.8 hPa 1.4 m/s 21.6° 1019.8 hPa 1.3 m/s 39.3 mm
11:00 24.8° 1020.9 hPa 1.5 m/s 39.3 mm 24.6° 1021.0 hPa 1.5 m/s 27.0° 1019.4 hPa 0.7 m/s 39.3 mm
14:00 29.2° 1020.2 hPa 1.6 m/s 39.3 mm 29.1° 1020.3 hPa 1.7 m/s 30.8° 1019.0 hPa 0.8 m/s 39.3 mm
17:00 28.6° 1019.9 hPa 1.5 m/s 39.3 mm 28.4° 1020.0 hPa 1.6 m/s 31.8° 1018.8 hPa 0.6 m/s 39.3 mm
20:00 27.7° 1019.6 hPa 1.5 m/s 39.3 mm 27.6° 1019.6 hPa 1.5 m/s 28.9° 1019.2 hPa 0.9 m/s 39.3 mm
23:00 23.8° 1020.4 hPa 1.7 m/s 39.3 mm 23.8° 1020.3 hPa 1.7 m/s 23.4° 1021.1 hPa 1.4 m/s 39.3 mm
 05:42     21:31    Daglengte: 15:49 Woensdag 26 Jun
02:00 20.1° 1021.0 hPa 1.8 m/s 39.3 mm 20.0° 1021.0 hPa 1.9 m/s 21.0° 1021.1 hPa 0.4 m/s 39.3 mm
05:00 20.8° 1021.3 hPa 1.2 m/s 39.3 mm 20.9° 1021.4 hPa 1.3 m/s 19.9° 1020.7 hPa 0.4 m/s 39.3 mm
08:00 21.8° 1021.6 hPa 0.7 m/s 39.3 mm 21.7° 1021.7 hPa 0.7 m/s 23.4° 1020.5 hPa 0.8 m/s 39.3 mm
11:00 26.3° 1021.0 hPa 0.9 m/s 39.3 mm 26.1° 1021.1 hPa 0.9 m/s 28.2° 1019.8 hPa 0.9 m/s 39.3 mm
14:00 30.6° 1020.4 hPa 1.2 m/s 39.3 mm 30.5° 1020.5 hPa 1.2 m/s 32.1° 1018.8 hPa 0.9 m/s 39.3 mm
17:00 30.1° 1019.7 hPa 1.0 m/s 39.3 mm 29.9° 1019.9 hPa 1.1 m/s 32.7° 1017.6 hPa 0.6 m/s 39.3 mm
20:00 29.2° 1019.1 hPa 0.9 m/s 39.3 mm 29.2° 1019.2 hPa 0.9 m/s 29.7° 1017.8 hPa 0.4 m/s 39.3 mm
23:00 25.7° 1019.5 hPa 0.9 m/s 39.3 mm 25.9° 1019.6 hPa 0.9 m/s 23.9° 1018.7 hPa 0.2 m/s 39.3 mm
 05:43     21:31    Daglengte: 15:48 Donderdag 27 Jun
02:00 22.5° 1019.9 hPa 1.0 m/s 39.3 mm 22.5° 1020.0 hPa 1.0 m/s 22.0° 1018.5 hPa 0.9 m/s 39.3 mm
08:00 23.8° 1020.3 hPa 1.1 m/s 39.3 mm 23.7° 1020.5 hPa 1.1 m/s 24.5° 1018.1 hPa 0.9 m/s 39.3 mm
14:00 31.1° 1019.2 hPa 2.0 m/s 39.3 mm 31.0° 1019.5 hPa 2.1 m/s 32.7° 1015.8 hPa 0.8 m/s 39.3 mm
20:00 28.9° 1017.8 hPa 1.0 m/s 39.3 mm 28.9° 1018.0 hPa 0.9 m/s 29.0° 1015.5 hPa 1.7 m/s 39.3 mm
 05:43     21:31    Daglengte: 15:48 Vrijdag 28 Jun
02:00 22.3° 1018.6 hPa 0.8 m/s 39.4 mm 22.3° 1018.7 hPa 0.8 m/s 21.8° 1017.0 hPa 1.0 m/s 39.4 mm
08:00 24.3° 1018.0 hPa 0.6 m/s 39.4 mm 24.3° 1018.1 hPa 0.6 m/s 24.6° 1016.5 hPa 0.2 m/s 39.4 mm
14:00 32.2° 1016.2 hPa 0.7 m/s 39.4 mm 32.4° 1016.3 hPa 0.6 m/s 30.4° 1015.2 hPa 1.6 m/s 39.4 mm
20:00 29.9° 1014.5 hPa 1.3 m/s 40.1 mm 30.1° 1014.5 hPa 1.2 m/s 27.4° 1014.8 hPa 2.7 m/s 40.1 mm
 05:44     21:31    Daglengte: 15:47 Zaterdag 29 Jun
02:00 22.9° 1015.1 hPa 1.4 m/s 42.4 mm 23.0° 1014.9 hPa 1.4 m/s 21.5° 1016.8 hPa 1.0 m/s 42.4 mm
08:00 23.3° 1016.8 hPa 0.0 m/s 42.7 mm 23.3° 1016.8 hPa 0.0 m/s 42.7 mm
14:00 30.6° 1015.1 hPa 0.6 m/s 42.8 mm 30.6° 1015.1 hPa 0.6 m/s 42.8 mm
20:00 27.8° 1014.8 hPa 1.8 m/s 45.4 mm 27.8° 1014.8 hPa 1.8 m/s 45.4 mm
 05:44     21:31    Daglengte: 15:47 Zondag 30 Jun
02:00 19.7° 1014.7 hPa 1.4 m/s 1.1 mm
08:00 21.4° 1015.2 hPa 1.5 m/s 1.1 mm
14:00 27.2° 1014.0 hPa 2.1 m/s 0.5 mm
20:00 25.0° 1014.1 hPa 1.7 m/s 1.7 mm
 05:45     21:31    Daglengte: 15:46 Maandag 01 Jul
02:00 17.2° 1015.7 hPa 1.4 m/s 1.5 mm
08:00 18.8° 1015.6 hPa 1.5 m/s 0.8 mm
14:00 23.9° 1014.4 hPa 2.3 m/s 0.9 mm
20:00 21.3° 1014.6 hPa 1.9 m/s 3.0 mm
 05:45     21:31    Daglengte: 15:46 Dinsdag 02 Jul
02:00 14.5° 1015.8 hPa 1.0 m/s 1.3 mm
08:00 16.1° 1015.6 hPa 1.0 m/s 0.7 mm
14:00 20.4° 1014.4 hPa 2.5 m/s 1.0 mm
20:00 18.8° 1014.6 hPa 1.8 m/s 1.3 mm
 05:46     21:30    Daglengte: 15:44 Woensdag 03 Jul
02:00 12.3° 1015.8 hPa 0.6 m/s 0.5 mm
08:00 14.8° 1015.5 hPa 0.7 m/s 0.5 mm
14:00 19.6° 1014.2 hPa 2.3 m/s 1.4 mm
20:00 18.1° 1014.2 hPa 1.9 m/s 2.9 mm
 05:47     21:30    Daglengte: 15:43 Donderdag 04 Jul
02:00 11.8° 1015.2 hPa 1.0 m/s 1.6 mm
08:00 14.0° 1015.4 hPa 1.4 m/s 1.4 mm
14:00 19.5° 1014.5 hPa 2.1 m/s 1.1 mm
20:00 18.1° 1015.0 hPa 1.5 m/s 1.9 mm
 05:47     21:30    Daglengte: 15:43 Vrijdag 05 Jul
02:00 11.8° 1016.8 hPa 1.5 m/s 1.8 mm
FMI Hirlam - 7.5 km EWN WRFDA - 12 km DWD ICON - 7 km GFS - 25 km Basiskaart






























































Updatetijd (Europe/Amsterdam) Resolutie Lengte Stap
FMI Hirlam 01:15, 07:15, 13:15, 19:15 7.5 km 49h 1h
EWN WRFDA 22:15, 04:15, 10:15, 16:15 12 km 73h 1h
DWD ICON 23:45, 05:45, 11:45, 17:45 7 km 75h 1h
GFS 02:30, 08:30, 14:30, 20:30 25 km 237h 3h
30+ mm
25-30 mm
20-25 mm
15-20 mm
10-15 mm
6-10 mm
4-6 mm
2-4 mm
1-2 mm
0.5-1 mm
0.2-0.5 mm
0.1-0.2 mm
30+ mm
25-30 mm
20-25 mm
15-20 mm
10-15 mm
6-10 mm
4-6 mm
2-4 mm
1-2 mm
0.5-1 mm
0.2-0.5 mm
0.1-0.2 mm
Sneeuwval
Natte sneeuw
Hagel
Vorst
30+ mm
25-30 mm
20-25 mm
15-20 mm
10-15 mm
6-10 mm
4-6 mm
2-4 mm
1-2 mm
0.5-1 mm
0.2-0.5 mm
0.1-0.2 mm
Sneeuwval
Natte sneeuw
Hagel
Vorst
Onweer
50 mm
40 mm
30 mm
26 mm
22 mm
18 mm
14 mm
10 mm
9 mm
8 mm
7 mm
6 mm
5 mm
4.5 mm
4 mm
3.5 mm
3 mm
2.5 mm
2 mm
1.5 mm
1 mm
0.8 mm
0.6 mm
0.4 mm
0.2 mm
0.05 mm
35°
30°
25°
20°
15°
10°
-5°
-10°
-15°
-20°
-25°
-30°
-35°
120> km/h
105 km/h
90 km/h
75 km/h
60 km/h
50 km/h
40 km/h
30 km/h
20 km/h
10 km/h
0 km/h
2600 J/kg
2400 J/kg
2200 J/kg
2000 J/kg
1800 J/kg
1600 J/kg
1400 J/kg
1200 J/kg
1000 J/kg
800 J/kg
600 J/kg
400 J/kg
200 J/kg
70 dBZ
65 dBZ
60 dBZ
55 dBZ
50 dBZ
45 dBZ
40 dBZ
35 dBZ
30 dBZ
25 dBZ
20 dBZ
15 dBZ
10 dBZ
5 dBZ
-1 K
-2 K
-3 K
-4 K
-5 K
-6 K
-7 K
-8 K
-9 K
950 m²/s²
900 m²/s²
850 m²/s²
800 m²/s²
750 m²/s²
700 m²/s²
650 m²/s²
600 m²/s²
550 m²/s²
500 m²/s²
450 m²/s²
400 m²/s²
350 m²/s²
300 m²/s²
250 m²/s²
200 m²/s²
150 m²/s²
100 m²/s²
46 m/s
44 m/s
42 m/s
40 m/s
38 m/s
36 m/s
34 m/s
32 m/s
30 m/s
28 m/s
26 m/s
24 m/s
22 m/s
20 m/s
16 m/s
12 m/s
8 m/s
4 m/s
30 m/s
28 m/s
26 m/s
24 m/s
22 m/s
20 m/s
18 m/s
16 m/s